Tracking 29892 objects as of 21-Nov-2024
HD Live streaming from Space Station
objects crossing your sky now

NAVSTAR 78 (USA 293)

Track NAVSTAR 78 (USA 293) now!
NAVSTAR 78 (USA 293) is classified as:


NORAD ID: 44506
Int'l Code: 2019-056A
Perigee: 20,060.9 km
Apogee: 20,318.8 km
Inclination: 55.8 °
Period: 718.0 minutes
Semi major axis: 26560 km
RCS: Unknown
Launch date: August 22, 2019
Source: United States (US)
Launch site: AIR FORCE EASTERN TEST RANGE (AFETR)
PRN: 18
Your satellite tracking list
Your tracking list is empty




NASA's NSSDC Master Catalog

Two Line Element Set (TLE):
1 44506U 19056A   24325.51977590 -.00000098  00000-0  00000-0 0  9997
2 44506  55.8260 353.8982 0048549 193.8335 337.7954  2.00558031 38561
Source of the keplerian elements: AFSPC